Wiley Ford, WV

6:20 PM EST on February 12, 2016 (GMT -0500)
Greater Cumberland Regional

Weather History for KCBE - February, 2013

Change the Weather History Date:

Wednesday, February 27, 2013

  Actual Average (KMRB) Record (KMRB)
Temperature  
Mean Temperature 40 °F 36 °F  
Max Temperature 46 °F 47 °F 75 °F (1932)
Min Temperature 33 °F 27 °F 5 °F (1934)
Degree Days  
Heating Degree Days 26 29  
Month to date heating degree days 846  
Since 1 July heating degree days 3929  
Cooling Degree Days 0 0  
Month to date cooling degree days 0  
Year to date cooling degree days 0  
Moisture  
Dew Point 35 °F    
Average Humidity 83    
Maximum Humidity 100    
Minimum Humidity 61    
Precipitation  
Precipitation 0.00 in 0.09 in 1.11 in (1958)
Month to date precipitation 2.25  
Year to date precipitation 4.69  
Sea Level Pressure  
Sea Level Pressure 29.68 in    
Wind  
Wind Speed 3 mph (SW)    
Max Wind Speed 14 mph    
Max Gust Speed 24 mph    
Visibility 7 miles    
Events      
T = Trace of Precipitation, MM = Missing Value Source: NWS Daily Summary

Daily Weather History Graph

Daily Weather History Graph

Search for Another Location

Airport or City:

Trip Planner

Search our weather history database for the weather conditions in past years. The results will help you decide how hot, cold, wet, or windy it might be!

Date:

Astronomy

Feb. 27, 2013 Rise Set
Actual Time 6:50 AM EST 6:05 PM EST
Civil Twilight 6:23 AM EST 6:32 PM EST
Nautical Twilight 5:52 AM EST 7:03 PM EST
Astronomical Twilight 5:21 AM EST 7:34 PM EST
Moon 8:23 PM EST (2/27) 7:25 AM EST (2/27)
Length of Visible Light 12h 08m
Length of Day
11h 14m
Waning Gibbous, 96% of the Moon is Illuminated
Feb 27
Waning Gibbous
Mar 4
Last Quarter
Mar 11
New
Mar 19
First Quarter
Mar 27
Full

Hourly Weather History & Observations

Time (EST) Temp. Windchill Dew Point Humidity Pressure Visibility Wind Dir Wind Speed Gust Speed Precip Events Conditions
12:06 AM 35.6 °F - 35.6 °F 100% 29.70 in 2.5 mi Calm Calm - N/A   Overcast
12:26 AM 35.6 °F 32.8 °F 35.6 °F 100% 29.69 in 2.5 mi North 3.5 mph - N/A   Overcast
12:46 AM 35.6 °F 32.8 °F 35.6 °F 100% 29.68 in 2.5 mi North 3.5 mph - N/A   Overcast
1:06 AM 35.6 °F - 35.6 °F 100% 29.67 in 2.0 mi Calm Calm - N/A   Overcast
1:26 AM 35.6 °F - 35.6 °F 100% 29.66 in 2.0 mi Calm Calm - N/A   Overcast
1:46 AM 35.6 °F 32.8 °F 35.6 °F 100% 29.66 in 4.0 mi North 3.5 mph - N/A   Overcast
2:06 AM 35.6 °F - 35.6 °F 100% 29.65 in 2.5 mi Calm Calm - N/A   Overcast
2:26 AM 35.6 °F - 35.6 °F 100% 29.65 in 2.5 mi Calm Calm - N/A   Overcast
2:46 AM 35.6 °F - 35.6 °F 100% 29.64 in 2.0 mi Calm Calm - N/A   Overcast
3:06 AM 35.6 °F - 35.6 °F 100% 29.63 in 1.2 mi Calm Calm - N/A   Overcast
3:26 AM 35.6 °F - 35.6 °F 100% 29.64 in 2.0 mi Calm Calm - N/A   Overcast
3:46 AM 35.6 °F - 35.6 °F 100% 29.64 in 3.0 mi Calm Calm - N/A   Overcast
4:06 AM 35.6 °F - 35.6 °F 100% 29.64 in 7.0 mi Calm Calm - N/A   Overcast
4:26 AM 35.6 °F - 35.6 °F 100% 29.64 in 5.0 mi Calm Calm - N/A   Overcast
4:46 AM 35.6 °F - 35.6 °F 100% 29.64 in 7.0 mi Calm Calm - N/A   Overcast
5:06 AM 35.6 °F - 35.6 °F 100% 29.64 in 7.0 mi Calm Calm - N/A   Overcast
5:26 AM 35.6 °F - 35.6 °F 100% 29.64 in 3.0 mi Calm Calm - N/A   Overcast
5:46 AM 35.6 °F - 35.6 °F 100% 29.64 in 5.0 mi Calm Calm - N/A   Overcast
6:06 AM 35.6 °F - 35.6 °F 100% 29.64 in 7.0 mi Calm Calm - N/A   Overcast
6:26 AM 35.6 °F 31.7 °F 35.6 °F 100% 29.65 in 10.0 mi SW 4.6 mph - N/A   Overcast
6:46 AM 35.6 °F - 35.6 °F 100% 29.65 in 3.0 mi Calm Calm - N/A   Overcast
7:06 AM 33.8 °F - 33.8 °F 100% 29.64 in 4.0 mi Calm Calm - N/A   Mostly Cloudy
7:26 AM 35.6 °F - 35.6 °F 100% 29.65 in 7.0 mi Calm Calm - N/A   Scattered Clouds
7:47 AM 35.6 °F - 35.6 °F 100% 29.66 in 2.0 mi Calm Calm - N/A   Overcast
8:07 AM 35.6 °F 32.8 °F 35.6 °F 100% 29.66 in 1.0 mi SE 3.5 mph - N/A   Overcast
8:27 AM 35.6 °F 32.8 °F 35.6 °F 100% 29.66 in 2.5 mi SE 3.5 mph - N/A   Overcast
8:47 AM 35.6 °F 32.8 °F 35.6 °F 100% 29.67 in 3.0 mi South 3.5 mph - N/A   Overcast
9:07 AM 35.6 °F - 35.6 °F 100% 29.67 in 4.0 mi Calm Calm - N/A   Overcast
9:27 AM 37.4 °F 34.9 °F 37.4 °F 100% 29.67 in 5.0 mi SE 3.5 mph - N/A   Mostly Cloudy
9:47 AM 41.0 °F 37.1 °F 41.0 °F 100% 29.67 in 5.0 mi SE 5.8 mph - N/A   Mostly Cloudy
10:07 AM 41.0 °F 36.4 °F 41.0 °F 100% 29.67 in 10.0 mi SSE 6.9 mph - N/A   Mostly Cloudy
10:27 AM 42.8 °F 39.3 °F 41.0 °F 93% 29.68 in 10.0 mi SSE 5.8 mph - N/A   Overcast
10:47 AM 46.4 °F - 41.0 °F 81% 29.67 in 10.0 mi Calm Calm - N/A   Mostly Cloudy
11:07 AM 44.6 °F 38.1 °F 35.6 °F 71% 29.68 in 10.0 mi West 13.8 mph 19.6 mph N/A   Mostly Cloudy
11:27 AM 44.6 °F 38.1 °F 33.8 °F 66% 29.69 in 10.0 mi SW 13.8 mph 21.9 mph N/A   Overcast
11:47 AM 44.6 °F 41.4 °F 33.8 °F 66% 29.69 in 10.0 mi West 5.8 mph - N/A   Overcast
12:07 PM 44.6 °F 41.4 °F 33.8 °F 66% 29.69 in 10.0 mi WSW 5.8 mph - N/A   Overcast
12:27 PM 44.6 °F 43.1 °F 32.0 °F 61% 29.68 in 10.0 mi West 3.5 mph 16.1 mph N/A   Overcast
12:47 PM 44.6 °F 40.2 °F 32.0 °F 61% 29.69 in 10.0 mi West 8.1 mph 19.6 mph N/A   Overcast
1:07 PM 44.6 °F 39.2 °F 32.0 °F 61% 29.68 in 10.0 mi SSW 10.4 mph 16.1 mph N/A   Overcast
1:27 PM 44.6 °F 42.2 °F 33.8 °F 66% 29.69 in 10.0 mi West 4.6 mph 21.9 mph N/A   Overcast
1:47 PM 44.6 °F 43.1 °F 32.0 °F 61% 29.69 in 10.0 mi West 3.5 mph - N/A   Overcast
2:07 PM 44.6 °F 40.2 °F 33.8 °F 66% 29.69 in 10.0 mi SSW 8.1 mph 16.1 mph N/A   Overcast
2:27 PM 44.6 °F 40.7 °F 33.8 °F 66% 29.69 in 10.0 mi SW 6.9 mph 24.2 mph N/A   Mostly Cloudy
2:47 PM 46.4 °F 42.9 °F 33.8 °F 62% 29.69 in 10.0 mi SW 6.9 mph - N/A   Mostly Cloudy
3:07 PM 44.6 °F 39.7 °F 33.8 °F 66% 29.69 in 10.0 mi WSW 9.2 mph - N/A   Mostly Cloudy
3:27 PM 44.6 °F 40.7 °F 33.8 °F 66% 29.69 in 10.0 mi SW 6.9 mph - N/A   Overcast
3:47 PM 44.6 °F 41.4 °F 33.8 °F 66% 29.69 in 10.0 mi SW 5.8 mph - N/A   Overcast
4:08 PM 44.6 °F 39.7 °F 33.8 °F 66% 29.70 in 10.0 mi SSW 9.2 mph - N/A   Mostly Cloudy
4:28 PM 44.6 °F 43.1 °F 33.8 °F 66% 29.70 in 10.0 mi SW 3.5 mph - N/A   Overcast
4:48 PM 44.6 °F 42.2 °F 33.8 °F 66% 29.70 in 10.0 mi SSW 4.6 mph - N/A   Overcast
5:08 PM 42.8 °F 38.0 °F 33.8 °F 70% 29.70 in 10.0 mi SSW 8.1 mph - N/A   Overcast
5:28 PM 42.8 °F 40.1 °F 33.8 °F 70% 29.70 in 10.0 mi SW 4.6 mph - N/A   Overcast
5:48 PM 42.8 °F 39.3 °F 33.8 °F 70% 29.71 in 10.0 mi SSW 5.8 mph - N/A   Overcast
6:08 PM 42.8 °F 39.3 °F 33.8 °F 70% 29.71 in 10.0 mi SW 5.8 mph - N/A   Overcast
6:28 PM 42.8 °F 41.1 °F 32.0 °F 66% 29.72 in 10.0 mi WSW 3.5 mph - N/A   Overcast
6:48 PM 42.8 °F 38.0 °F 32.0 °F 66% 29.72 in 10.0 mi SSW 8.1 mph - N/A   Overcast
7:08 PM 42.8 °F 39.3 °F 32.0 °F 66% 29.72 in 10.0 mi SSW 5.8 mph - N/A   Overcast
7:28 PM 42.8 °F 38.0 °F 33.8 °F 70% 29.72 in 10.0 mi SSW 8.1 mph - N/A   Overcast
7:48 PM 42.8 °F - 32.0 °F 66% 29.72 in 10.0 mi Calm Calm - N/A   Overcast
8:08 PM 42.8 °F 38.0 °F 33.8 °F 70% 29.72 in 10.0 mi SSW 8.1 mph - N/A   Mostly Cloudy
8:28 PM 42.8 °F 39.3 °F 33.8 °F 70% 29.72 in 10.0 mi South 5.8 mph - N/A   Mostly Cloudy
8:48 PM 42.8 °F 38.0 °F 33.8 °F 70% 29.72 in 10.0 mi SSW 8.1 mph - N/A   Mostly Cloudy
9:08 PM 42.8 °F 37.0 °F 33.8 °F 70% 29.72 in 10.0 mi SSW 10.4 mph 16.1 mph N/A   Overcast
9:28 PM 42.8 °F 38.0 °F 32.0 °F 66% 29.71 in 10.0 mi SW 8.1 mph - N/A   Overcast
9:48 PM 41.0 °F 37.1 °F 33.8 °F 76% 29.71 in 10.0 mi SSW 5.8 mph - N/A   Overcast
10:08 PM 41.0 °F 35.2 °F 33.8 °F 76% 29.70 in 10.0 mi SSW 9.2 mph - N/A   Mostly Cloudy
10:28 PM 41.0 °F 37.1 °F 33.8 °F 76% 29.70 in 10.0 mi WSW 5.8 mph - N/A   Mostly Cloudy
10:48 PM 41.0 °F 39.0 °F 33.8 °F 76% 29.70 in 10.0 mi SW 3.5 mph - N/A   Overcast
11:08 PM 39.2 °F 34.2 °F 35.6 °F 87% 29.70 in 7.0 mi SSW 6.9 mph - N/A   Overcast
11:28 PM 37.4 °F 32.8 °F 35.6 °F 93% 29.70 in 10.0 mi SW 5.8 mph - N/A   Mostly Cloudy
11:48 PM 37.4 °F 32.1 °F 33.8 °F 87% 29.69 in 10.0 mi SSW 6.9 mph - N/A   Clear